{"data":{"norad_id":68721,"epoch":"2026-05-25T04:00:03.998880Z","epoch_age_seconds":56426,"freshness":"FRESH","line1":"1 68721U 26081Y   26145.16671295 -.01826646  00000+0 -42813-1 0  9999","line2":"2 68721  53.1597  38.8351 0001343 110.9182 194.3143 15.44654179  5902","mean_motion":15.44654179,"eccentricity":0.0001343,"inclination_deg":53.1597,"raan_deg":38.8351,"arg_perigee_deg":110.9182,"mean_anomaly_deg":194.3143,"bstar":-0.042813,"rev_number":590,"period_min":93.224750211225,"perigee_km":431.47973391379,"apogee_km":433.30904264469,"semimajor_km":6810.5313882792,"source":"CELESTRAK","updated_at":"2026-05-25T13:38:22.002488Z"}}